ORBCOMM FM31 [+]

Last updated on July 6, 2021, 3:36 p.m. UTC

1 25981U 99065B   21186.87058431  .00000040  00000-0  65441-4 0  9996
2 25981  45.0255  40.1552 0004015  42.6594 317.4564 14.33046408126928
UTC
Height (km)
Latitude
Longitude
Inclination
Orbital Period
UTC large
Height (km)
Speed (km/s)
/
Latitude / Longitude
Inclination (degrees)
Orbital Period (minutes)
Azimuth
Elevation
Range (km)
Doppler Factor
iOS Compass Heading
iOS Angle